Weather History for Davenport, IA

Change the Weather History Date:

Monday, January 3, 2011

  Actual Average Record
Temperature  
Mean Temperature 28 °F 21 °F  
Max Temperature 35 °F 30 °F 60 °F (1998)
Min Temperature 20 °F 13 °F -12 °F (2014)
Degree Days  
Heating Degree Days 37 44  
Month to date heating degree days 126 131  
Since 1 July heating degree days 2726 2711  
Cooling Degree Days 0 0  
Month to date cooling degree days 0 0  
Year to date cooling degree days 0 0  
Moisture  
Dew Point 18 °F    
Average Humidity 63    
Maximum Humidity 75    
Minimum Humidity 51    
Precipitation  
Precipitation 0.00 in 0.02 in 0.60 in (1974)
Month to date precipitation T 0.09  
Year to date precipitation T 0.09  
Snow  
Snow 0.00 in - - ()
Month to date snowfall T  
Since 1 July snowfall 24.4  
Snow Depth 0.00 in    
Sea Level Pressure  
Sea Level Pressure 30.06 in    
Wind  
Wind Speed 7 mph (SW)    
Max Wind Speed 14 mph    
Max Gust Speed 20 mph    
Visibility 10 miles    
Events      
T = Trace of Precipitation, MM = Missing Value Source: NWS Daily Summary

Daily Weather History Graph

Daily Weather History Graph

Search for Another Location

Airport:

Trip Planner

Search our weather history database for the weather conditions in past years. The results will help you decide how hot, cold, wet, or windy it might be!

Date:

Astronomy

Jan. 03, 2011 Rise Set
Actual Time 7:29 AM CST 4:44 PM CST
Civil Twilight 6:58 AM CST 5:15 PM CST
Nautical Twilight 6:23 AM CST 5:50 PM CST
Astronomical Twilight 5:49 AM CST 6:24 PM CST
Moon 6:55 AM CST (1/3) 4:15 PM CST (1/3)
Length of Visible Light 10h 17m
Length of Day
9h 15m
Waning Crescent, 0% of the Moon is Illuminated
Jan 3
Waning Crescent
Jan 4
New
Jan 12
First Quarter
Jan 19
Full
Jan 26
Last Quarter

Hourly Weather History & Observations

Time (CST) Temp. Windchill Dew Point Humidity Pressure Visibility Wind Dir Wind Speed Gust Speed Precip Events Conditions
12:52 AM 26.1 °F 15.6 °F 14.0 °F 60% 30.08 in 10.0 mi SSW 11.5 mph - N/A   Clear
1:52 AM 25.0 °F 14.8 °F 14.0 °F 63% 30.09 in 10.0 mi SW 10.4 mph - N/A   Clear
2:52 AM 23.0 °F 13.9 °F 14.0 °F 68% 30.09 in 10.0 mi SW 8.1 mph - N/A   Clear
3:52 AM 23.0 °F 13.9 °F 14.0 °F 68% 30.08 in 10.0 mi SW 8.1 mph - N/A   Clear
4:52 AM 23.0 °F 15.8 °F 14.0 °F 68% 30.09 in 10.0 mi WSW 5.8 mph - N/A   Clear
5:52 AM 21.9 °F 12.5 °F 14.0 °F 72% 30.10 in 10.0 mi SW 8.1 mph - N/A   Clear
6:52 AM 21.0 °F 14.6 °F 14.0 °F 74% 30.09 in 10.0 mi SW 4.6 mph - N/A   Clear
7:52 AM 21.0 °F 14.6 °F 14.0 °F 74% 30.11 in 10.0 mi SSW 4.6 mph - N/A   Clear
8:52 AM 25.0 °F 13.6 °F 15.1 °F 66% 30.11 in 10.0 mi SW 12.7 mph - N/A   Clear
9:52 AM 28.9 °F 19.2 °F 17.1 °F 61% 30.12 in 10.0 mi WSW 11.5 mph - N/A   Clear
10:52 AM 30.9 °F 24.3 °F 18.0 °F 59% 30.11 in 10.0 mi WSW 6.9 mph - N/A   Clear
11:52 AM 32.0 °F 28.7 °F 18.0 °F 56% 30.08 in 10.0 mi Variable 3.5 mph - N/A   Clear
12:52 PM 33.1 °F 28.7 °F 19.0 °F 56% 30.05 in 10.0 mi WSW 4.6 mph - N/A   Clear
1:52 PM 34.0 °F 29.8 °F 19.0 °F 54% 30.03 in 10.0 mi SW 4.6 mph - N/A   Clear
2:52 PM 34.0 °F 28.8 °F 17.1 °F 50% 30.02 in 10.0 mi SSW 5.8 mph - N/A   Clear
3:52 PM 33.1 °F 30.0 °F 19.9 °F 59% 30.01 in 10.0 mi South 3.5 mph - N/A   Mostly Cloudy
4:52 PM 32.0 °F - 19.9 °F 61% 30.01 in 10.0 mi Calm Calm - N/A   Overcast
5:52 PM 30.9 °F 27.5 °F 21.9 °F 69% 30.03 in 10.0 mi SW 3.5 mph - N/A   Overcast
6:52 PM 30.0 °F 26.5 °F 23.0 °F 75% 30.02 in 10.0 mi SW 3.5 mph - N/A   Overcast
7:52 PM 30.0 °F 26.5 °F 23.0 °F 75% 30.02 in 10.0 mi West 3.5 mph - N/A   Overcast
8:52 PM 30.0 °F 24.1 °F 21.9 °F 72% 30.00 in 10.0 mi SW 5.8 mph - N/A   Overcast
9:52 PM 28.0 °F 20.0 °F 21.9 °F 78% 30.00 in 10.0 mi WSW 8.1 mph - N/A   Scattered Clouds
10:52 PM 28.0 °F 19.3 °F 19.9 °F 72% 30.00 in 10.0 mi West 9.2 mph - N/A   Clear
11:52 PM 27.0 °F 18.7 °F 19.9 °F 75% 29.99 in 10.0 mi West 8.1 mph - N/A   Scattered Clouds